Cairns, Australia

8:09 AM AEST on January 17, 2017 (GMT +1000)
Cairns International

Weather History for YBCS - September, 2011

Change the Weather History Date:

Monday, September 19, 2011

  Actual Average Record
Temperature  
Mean Temperature 74 °F -  
Max Temperature 84 °F 84 °F 86 °F (1998)
Min Temperature 64 °F 68 °F 55 °F (2014)
Cooling Degree Days 9    
Growing Degree Days 24 (Base 50)    
Moisture  
Dew Point 60 °F    
Average Humidity 64    
Maximum Humidity 88    
Minimum Humidity 32    
Precipitation  
Precipitation 0.00 in 0.05 in - ()
Sea Level Pressure  
Sea Level Pressure 30.01 in    
Wind  
Wind Speed 9 mph ()    
Max Wind Speed 15 mph    
Max Gust Speed -    
Visibility 7.8 miles    
Events      
Averages and records for this station are not official NWS values.
T = Trace of Precipitation, MM = Missing Value Source: Averaged Metar Reports

Daily Weather History Graph

Daily Weather History Graph

Search for Another Location

Airport or City:

Trip Planner

Search our weather history database for the weather conditions in past years. The results will help you decide how hot, cold, wet, or windy it might be!

Date:

Astronomy

Sep. 19, 2011 Rise Set
Actual Time 6:09 AM AEST 6:12 PM AEST
Civil Twilight 5:48 AM AEST 6:34 PM AEST
Nautical Twilight 5:23 AM AEST 6:59 PM AEST
Astronomical Twilight 4:58 AM AEST 7:24 PM AEST
Moon 11:49 PM AEST (9/19) 10:22 AM AEST (9/19)
Length of Visible Light 12h 45m
Length of Day
12h 02m
Waning Gibbous, 64% of the Moon is Illuminated
Sep 19
Waning Gibbous
Sep 20
Last Quarter
Sep 27
New
Oct 4
First Quarter
Oct 12
Full

Hourly Weather History & Observations

Time (AEST) Temp. Heat Index Dew Point Humidity Pressure Visibility Wind Dir Wind Speed Gust Speed Precip Events Conditions
12:00 AM 67 °F - 63 °F 81% 30.06 in 19 mi SE 8.1 mph - -   Partly Cloudy
12:00 AM 66.2 °F - 62.6 °F 88% 30.04 in 6.2 mi SE 8.1 mph - N/A   Partly Cloudy
12:30 AM 66.2 °F - 62.6 °F 88% 30.04 in 6.2 mi SSE 8.1 mph - N/A   Partly Cloudy
1:00 AM 67 °F - 62 °F 77% 30.05 in - SSE 10.4 mph - -  
1:00 AM 66.2 °F - 60.8 °F 83% 30.04 in 6.2 mi SSE 10.4 mph - N/A   Partly Cloudy
1:30 AM 66.2 °F - 60.8 °F 83% 30.04 in 6.2 mi SSE 11.5 mph - N/A   Partly Cloudy
2:00 AM 66.2 °F - 60.8 °F 83% 30.01 in 6.2 mi SE 10.4 mph - N/A   Partly Cloudy
2:30 AM 64.4 °F - 60.8 °F 88% 30.01 in 6.2 mi SSE 10.4 mph - N/A   Partly Cloudy
3:00 AM 65 °F - 60 °F 79% 30.01 in 19 mi SSE 10.4 mph - -   Partly Cloudy
3:00 AM 64.4 °F - 60.8 °F 88% 30.01 in 6.2 mi SSE 10.4 mph - N/A   Partly Cloudy
3:30 AM 66.2 °F - 60.8 °F 83% 30.01 in 6.2 mi SE 8.1 mph - N/A   Partly Cloudy
4:00 AM 65 °F - 60 °F 78% 30.01 in - SSE 8.1 mph - -  
4:00 AM 64.4 °F - 60.8 °F 88% 30.01 in 6.2 mi SSE 8.1 mph - N/A   Partly Cloudy
4:30 AM 64.4 °F - 60.8 °F 88% 30.01 in 6.2 mi SE 10.4 mph - N/A   Partly Cloudy
5:00 AM 64.4 °F - 60.8 °F 88% 30.01 in 6.2 mi SE 9.2 mph - N/A   Partly Cloudy
5:30 AM 64.4 °F - 60.8 °F 88% 30.01 in 6.2 mi SE 9.2 mph - N/A   Partly Cloudy
6:00 AM 69 °F - 59 °F 64% 30.02 in 19 mi South 6.9 mph - -   Partly Cloudy
6:00 AM 69.8 °F - 59.0 °F 68% 30.01 in 6.2 mi South 6.9 mph - N/A   Partly Cloudy
6:30 AM 64.4 °F - 59.0 °F 83% 30.04 in 6.2 mi SE 12.7 mph - N/A   Partly Cloudy
7:00 AM 67 °F - 60 °F 72% 30.06 in - SE 12.7 mph - -  
7:00 AM 66.2 °F - 60.8 °F 83% 30.04 in 6.2 mi SE 12.7 mph - N/A   Partly Cloudy
7:30 AM 69.8 °F - 60.8 °F 73% 30.04 in 6.2 mi SE 10.4 mph - N/A   Partly Cloudy
8:00 AM 75.2 °F - 59.0 °F 57% 30.06 in 6.2 mi South 9.2 mph - N/A   Partly Cloudy
8:30 AM 75.2 °F - 59.0 °F 57% 30.06 in 6.2 mi South 10.4 mph - N/A   Partly Cloudy
9:00 AM 77 °F - 60 °F 45% 30.08 in 19 mi South 10.4 mph - -   Partly Cloudy
9:00 AM 77.0 °F - 59.0 °F 54% 30.06 in 6.2 mi South 10.4 mph - N/A   Partly Cloudy
9:30 AM 78.8 °F - 60.8 °F 54% 30.06 in 6.2 mi South 10.4 mph - N/A   Partly Cloudy
10:00 AM 79 °F - 60 °F 42% 30.06 in - South 11.5 mph - -  
10:00 AM 78.8 °F - 60.8 °F 54% 30.04 in 6.2 mi South 11.5 mph - N/A   Partly Cloudy
10:30 AM 80.6 °F 80.8 °F 57.2 °F 45% 30.04 in 6.2 mi SSE 13.8 mph - N/A   Partly Cloudy
11:00 AM 82.4 °F 82.0 °F 57.2 °F 42% 30.04 in 6.2 mi SE 13.8 mph - N/A   Partly Cloudy
11:30 AM 82.4 °F 82.0 °F 57.2 °F 42% 30.04 in 6.2 mi SE 12.7 mph - N/A   Partly Cloudy
12:00 PM 84 °F - 59 °F 32% 30.02 in 19 mi SE 10.4 mph - -   Partly Cloudy
12:00 PM 84.2 °F 83.8 °F 59.0 °F 42% 30.01 in 6.2 mi SE 10.4 mph - N/A   Partly Cloudy
12:30 PM 84.2 °F 83.5 °F 57.2 °F 40% 30.01 in 6.2 mi ESE 10.4 mph - N/A   Partly Cloudy
1:00 PM 83 °F - 58 °F 32% 30.00 in - ESE 11.5 mph - -  
1:00 PM 82.4 °F 82.0 °F 57.2 °F 42% 29.98 in 6.2 mi ESE 11.5 mph - N/A   Partly Cloudy
1:30 PM 82.4 °F 82.0 °F 57.2 °F 42% 29.98 in 6.2 mi ESE 10.4 mph - N/A   Partly Cloudy
2:00 PM 84.2 °F 83.5 °F 57.2 °F 40% 29.95 in 6.2 mi East 13.8 mph - N/A   Partly Cloudy
2:30 PM 82.4 °F 82.0 °F 57.2 °F 42% 29.95 in 6.2 mi ESE 12.7 mph - N/A   Partly Cloudy
3:00 PM 82 °F - 58 °F 33% 29.95 in 19 mi East 15.0 mph - -   Partly Cloudy
3:00 PM 82.4 °F 82.0 °F 57.2 °F 42% 29.95 in 6.2 mi East 15.0 mph - N/A   Partly Cloudy
3:30 PM 80.6 °F 81.1 °F 59.0 °F 48% 29.95 in 6.2 mi East 13.8 mph - N/A   Partly Cloudy
4:00 PM 81 °F - 59 °F 37% 29.96 in - ESE 12.7 mph - -  
4:00 PM 80.6 °F 81.1 °F 59.0 °F 48% 29.95 in 6.2 mi ESE 12.7 mph - N/A   Partly Cloudy
4:30 PM 80.6 °F 81.1 °F 59.0 °F 48% 29.95 in 6.2 mi ESE 10.4 mph - N/A   Partly Cloudy
5:00 PM 80.6 °F 81.5 °F 60.8 °F 51% 29.95 in 6.2 mi ESE 9.2 mph - N/A   Partly Cloudy
5:30 PM 77.0 °F - 60.8 °F 57% 29.95 in 6.2 mi SE 10.4 mph - N/A   Partly Cloudy
6:00 PM 75 °F - 61 °F 53% 29.97 in - SE 13.8 mph - -  
6:00 PM 75.2 °F - 60.8 °F 61% 29.95 in 6.2 mi SE 13.8 mph - N/A   Partly Cloudy
6:30 PM 73.4 °F - 62.6 °F 69% 29.98 in 6.2 mi SE 12.7 mph - N/A   Partly Cloudy
7:00 PM 73 °F - 63 °F 64% 29.99 in - SSE 8.1 mph - -  
7:00 PM 73.4 °F - 62.6 °F 69% 29.98 in 6.2 mi SSE 8.1 mph - N/A   Partly Cloudy
7:30 PM 71.6 °F - 64.4 °F 78% 29.98 in 6.2 mi South 8.1 mph - N/A   Partly Cloudy
8:00 PM 71.6 °F - 62.6 °F 73% 30.01 in 6.2 mi South 8.1 mph - N/A   Partly Cloudy
8:30 PM 71.6 °F - 62.6 °F 73% 30.01 in 6.2 mi South 8.1 mph - N/A   Partly Cloudy
9:00 PM 72 °F - 62 °F 63% 30.01 in 16 mi South 8.1 mph - -   Partly Cloudy
9:00 PM 71.6 °F - 62.6 °F 73% 30.01 in 6.2 mi South 8.1 mph - N/A   Partly Cloudy
9:30 PM 71.6 °F - 62.6 °F 73% 30.01 in 6.2 mi South 9.2 mph - N/A   Partly Cloudy
10:00 PM 72 °F - 63 °F 65% 30.04 in - South 9.2 mph - -  
10:00 PM 71.6 °F - 62.6 °F 73% 30.04 in 6.2 mi South 9.2 mph - N/A   Partly Cloudy
10:30 PM 71.6 °F - 62.6 °F 73% 30.04 in 6.2 mi South 8.1 mph - N/A   Partly Cloudy
11:00 PM 71.6 °F - 62.6 °F 73% 30.04 in 6.2 mi South 6.9 mph - N/A   Scattered Clouds
11:30 PM 71.6 °F - 62.6 °F 73% 30.04 in 6.2 mi South 2.3 mph - N/A   Partly Cloudy